EUTELSAT 33D

Last updated on Aug. 22, 2016, 9:38 a.m. UTC

1 27499U 02038A   16235.02068969 -.00000032  00000-0  00000+0 0  9996
2 27499   0.1575  82.6809 0002460  98.5107 178.8068  0.99326529 51263
UTC
Height (km)
Latitude
Longitude
Inclination
Orbital Period
UTC large
Height (km)
Speed (km/s)
/
Latitude / Longitude
Inclination (degrees)
Orbital Period (minutes)
Azimuth
Elevation
Range (km)
Doppler Factor
iOS Compass Heading
iOS Angle

Next 30 passes for location: Hong Kong

Rise time Rise Azimuth (degrees) Set time Set Azimuth (degrees) Duration Max altitude (degrees)

No matching passes for this satellites